AirNav   ATP
 
 832 users online  

44FD Hard Rock Heliport
Hollywood, Florida, USA

GOING TO HOLLYWOOD?


FAA INFORMATION EFFECTIVE 06 DECEMBER 2018

Location

FAA Identifier: 44FD
Lat/Long: 26-03-02.6900N / 080-12-39.2000W
26-03.044833N / 080-12.653333W
26.0507472 / -80.2108889
(estimated)
Elevation: 125 ft. / 38 m (estimated)
From city: 5 miles NW of HOLLYWOOD, FL
Time zone: UTC -5 (UTC -4 during Daylight Saving Time)
Zip code: 33314

Heliport Operations

Heliport use: Private use. Permission required prior to landing
Activation date: 12/2015
Control tower: no
ARTCC: MIAMI CENTER
FSS: MIAMI FLIGHT SERVICE STATION
Attendance: IREG
Wind indicator: yes
Segmented circle: yes

Heliport Communications

WX ASOS at HWO (3 nm SW): PHONE 954-983-5904
WX ASOS at FLL (4 nm E): PHONE 954-359-7857
WX ASOS at FXE (9 nm N): PHONE 954-772-2537
WX ASOS at OPF (9 nm SW): 125.9 (305-681-4063)
WX ASOS at PMP (13 nm NE): PHONE 954-783-3720
WX ASOS at MIA (16 nm S): PHONE 305-870-0235

Nearby radio navigation aids

VOR radial/distance  VOR name  Freq  Var
FLLr246/2.8FORT LAUDERDALE VOR/DME114.4006W
DHPr030/16.8DOLPHIN VORTAC113.9004W
VKZr354/18.2VIRGINIA KEY VOR/DME117.1004W
PBIr193/38.3PALM BEACH VORTAC115.7003W

 
NDB name  Hdg/Dist  Freq  Var  ID
PRAIZ157/9.322107WFX ..-. -..-

Heliport Services

Runway Information

Helipad H1

Dimensions: 50 x 50 ft. / 15 x 15 m
Surface: ROOF/TOP
Weight bearing capacity: 
Single wheel: 12.5
Traffic pattern: leftleft

Heliport Ownership and Management from official FAA records

Ownership: Privately-owned
Owner: SEMINOLE TRIBE OF FLORIDA
1 SEMINOLE WAY
HOLLYWOOD, FL 33024
Phone 863-983-7677
Manager: PEDRO RODRIQUEZ
35201 EAGLES LANDING
CLEWISTON, FL 33440
Phone 863-983-7677

Additional Remarks

HELI IS LCTD ON THE TOP FLOOR OF A PARKING GARAGE.
FOR CD CTC MIAMI APCH AT 305-869-5432.

Instrument Procedures

There are no published instrument procedures at 44FD.

Some nearby airports with instrument procedures:

KHWO - North Perry Airport (3 nm SW)
KFLL - Fort Lauderdale/Hollywood International Airport (4 nm E)
KFXE - Fort Lauderdale Executive Airport (9 nm N)
KOPF - Miami-Opa Locka Executive Airport (9 nm SW)
KPMP - Pompano Beach Airpark (13 nm NE)
KMIA - Miami International Airport (16 nm S)
 
Loc | Ops | Rwys | IFR | FBO | Links
Com | Nav | Svcs | Stats | Notes


 
Aerial photo
No photo
 
Airport distance calculator
Flying to Hard Rock Heliport? Find the distance to fly.

From to 44FD

Sunrise and sunset
Times for 12-Dec-2018
 Local
(UTC-5)
 Zulu
(UTC)
Morning civil twilight06:3411:34
Sunrise07:0012:00
Sunset17:3022:30
Evening civil twilight17:5522:55

Current date and time
Zulu (UTC)  13-Dec-2018 03:18:35
Local (UTC-5)  12-Dec-2018 22:18:35
 
METAR
KHWO 
3nm S 
130253Z AUTO 10006KT 10SM BKN055 22/12 A3019 RMK AO2 SLP223 T02220117 58002
KFLL 
3nm E 
130253Z 12010KT 10SM FEW043 SCT060 OVC250 22/12 A3017 RMK AO2 SLP216 T02170117 58000
KOPF 
9nm SW 
130253Z 11006KT 10SM SCT060 21/13 A3018 RMK AO2 SLP222 T02060128 58002
KFXE 
9nm N 
130253Z 11009KT 10SM BKN055 22/12 A3018 RMK AO2 SLP220 T02170122 58002 $
KPMP 
13nm NE 
130253Z AUTO 12008G17KT 10SM BKN049 BKN060 22/13 A3018 RMK AO2 SLP220 T02220133 58002
KMIA 
17nm S 
130253Z 11010KT 10SM SCT060 SCT250 21/13 A3018 RMK AO2 SLP218 T02110128 58002
TAF
KFLL 
3nm E 
122132Z 1222/1324 07010KT P6SM SCT050 BKN060 BKN250 FM130100 08007KT P6SM BKN050 BKN250 FM131400 12012KT P6SM SCT035 BKN050
KOPF 
9nm SW 
122132Z 1222/1318 08008KT P6SM BKN060 BKN250 FM131400 12010KT P6SM SCT035 BKN050
KFXE 
9nm N 
122132Z 1222/1318 07009KT P6SM SCT060 FM130100 06007KT P6SM BKN050 BKN250 FM131400 11010KT P6SM SCT035 BKN050
KMIA 
17nm S 
122132Z 1222/1324 06010KT P6SM BKN050 BKN250 FM130100 10005KT P6SM BKN050 BKN250 FM131400 12011KT P6SM SCT035 BKN050
NOTAMs
Click for the latest NOTAMs
NOTAMs are issued by the DoD/FAA and will open in a separate window not controlled by AirNav.

 

 
 

Would you like to see your business listed on this page?

 If your business provides an interesting product or service to pilots, flight crews, aircraft, or users of the Hard Rock Heliport, you should consider listing it here.  To start the listing process, click on the button below
 
Add a business
 

Other Pages about Hard Rock Heliport

Update a link
 
Copyright © AirNav, LLC. All rights reserved. Privacy Policy  Contact